Date String (YYYY-MM-DD hh:mm:ss) UTC,Instrument flags,Ambient pressure (hPa),Sample flow (lpm),Bypass flow (lpm),Sample temperature (°C),Ambient temperature (°C),ASC tube jacket temperature (°C),LED temperature (°C),Box temperature (°C),Sample RH (%),Span deviation,Mass concentration (μg/m³),Mass concentration (μg/m³),Mass concentration (μg/m³)
DateTimeUTC,F1_M11,P_M11,Q1_M11,Q2_M11,T1_M11,T2_M11,T3_M11,T4_M11,T5_M11,U1_M11,ZSPAN_M11,X0_M11,X2_M11,X1_M11
2021-10-22 20:00:00,,0824.6,5.00,0.00,30.1,29.3,00.0,39.1,32.0,08.1,0000.0,0010.90,0003.35,0002.08
2021-10-22 20:01:00,,0824.8,5.00,0.00,30.2,29.4,00.0,39.1,32.0,08.1,0000.0,0010.70,0003.32,0002.06
2021-10-22 20:02:00,,0824.5,5.00,0.00,30.2,29.5,00.0,39.1,32.0,08.1,0000.0,0009.87,0003.29,0002.05
2021-10-22 20:03:00,,0824.7,5.01,0.00,30.3,29.6,00.0,39.2,32.1,08.1,0000.0,0009.42,0003.30,0002.06
2021-10-22 20:04:00,,0824.6,4.99,0.00,30.3,29.6,00.0,39.2,32.1,08.0,0000.0,0009.32,0003.25,0002.06
2021-10-22 20:05:00,,0824.6,5.00,0.00,30.3,29.4,00.0,39.2,32.1,07.9,0000.0,0009.10,0003.18,0002.04
2021-10-22 20:06:00,,0824.5,5.00,0.00,30.3,27.5,00.0,39.2,31.8,08.1,0000.0,0009.17,0003.16,0002.01
2021-10-22 20:07:00,,0824.4,4.99,0.00,30.1,26.1,00.0,39.2,31.5,08.0,0000.0,0009.54,0003.16,0001.99
2021-10-22 20:08:00,,0824.4,5.00,0.00,30.0,26.3,00.0,39.2,31.4,08.1,0000.0,0008.89,0003.15,0001.98
2021-10-22 20:09:00,,0824.4,5.01,0.00,30.0,26.8,00.0,39.1,31.5,08.1,0000.0,0008.78,0003.12,0001.96
2021-10-22 20:10:00,,0824.4,5.00,0.00,29.9,27.2,00.0,39.1,31.5,08.1,0000.0,0009.42,0003.11,0001.94
2021-10-22 20:11:00,,0824.4,4.99,0.00,29.9,27.7,00.0,39.0,31.5,08.1,0000.0,0010.04,0003.13,0001.94
2021-10-22 20:12:00,,0824.4,5.01,0.00,29.9,28.0,00.0,39.0,31.6,08.2,0000.0,0010.60,0003.15,0001.94
2021-10-22 20:13:00,,0824.3,5.00,0.00,29.9,28.3,00.0,39.0,31.7,08.2,0000.0,0011.07,0003.17,0001.92
2021-10-22 20:14:00,,0824.4,4.99,0.00,30.0,28.6,00.0,39.0,31.7,08.2,0000.0,0010.87,0003.13,0001.89
2021-10-22 20:15:00,,0824.3,5.00,0.00,30.0,28.8,00.0,39.0,31.8,08.2,0000.0,0010.72,0003.18,0001.89
2021-10-22 20:16:00,,0824.3,5.01,0.00,30.0,29.0,00.0,39.0,31.8,08.1,0000.0,0010.45,0003.20,0001.90
2021-10-22 20:17:00,,0824.3,5.00,0.00,30.1,29.1,00.0,39.0,31.9,08.1,0000.0,0010.77,0003.18,0001.91
2021-10-22 20:18:00,,0824.3,5.00,0.00,30.1,29.2,00.0,39.1,31.9,07.9,0000.0,0010.44,0003.19,0001.91
2021-10-22 20:19:00,,0824.3,5.00,0.00,30.1,29.3,00.0,39.1,32.0,07.8,0000.0,0011.57,0003.23,0001.91
2021-10-22 20:20:00,,0824.2,5.01,0.00,30.2,29.4,00.0,39.1,32.0,07.7,0000.0,0012.13,0003.23,0001.91
2021-10-22 20:21:00,,0824.3,5.01,0.00,30.2,29.4,00.0,39.1,32.0,07.7,0000.0,0012.49,0003.22,0001.91
2021-10-22 20:22:00,,0824.3,5.00,0.00,30.2,29.5,00.0,39.1,32.1,07.7,0000.0,0012.95,0003.20,0001.90
2021-10-22 20:23:00,,0824.2,4.99,0.00,30.3,29.6,00.0,39.2,32.1,07.8,0000.0,0012.39,0003.17,0001.91
2021-10-22 20:24:00,,0824.2,5.00,0.00,30.3,28.9,00.0,39.2,32.0,07.7,0000.0,0011.88,0003.14,0001.92
2021-10-22 20:25:00,,0824.2,5.01,0.00,30.2,26.7,00.0,39.2,31.6,07.6,0000.0,0011.97,0003.14,0001.90
2021-10-22 20:26:00,,0824.1,5.00,0.00,30.0,25.9,00.0,39.2,31.4,07.6,0000.0,0012.66,0003.12,0001.87
2021-10-22 20:27:00,,0824.1,5.00,0.00,30.0,26.3,00.0,39.1,31.4,07.7,0000.0,0012.52,0003.10,0001.84
2021-10-22 20:28:00,,0824.1,5.00,0.00,29.9,26.8,00.0,39.1,31.4,07.7,0000.0,0011.59,0003.06,0001.81
2021-10-22 20:29:00,,0824.1,5.00,0.00,29.8,27.2,00.0,39.0,31.4,07.8,0000.0,0012.37,0003.03,0001.78
2021-10-22 20:30:00,,0824.0,5.00,0.00,29.8,27.6,00.0,39.0,31.5,07.7,0000.0,0011.37,0002.91,0001.76
2021-10-22 20:31:00,,0824.1,5.01,0.00,29.8,27.9,00.0,39.0,31.6,07.8,0000.0,0010.91,0002.89,0001.73
2021-10-22 20:32:00,,0824.1,4.99,0.00,29.9,28.2,00.0,39.0,31.6,07.9,0000.0,0010.20,0002.91,0001.70
2021-10-22 20:33:00,,0824.1,5.01,0.00,29.9,28.4,00.0,39.0,31.7,07.9,0000.0,0009.19,0002.84,0001.66
2021-10-22 20:34:00,,0824.1,5.01,0.00,29.9,28.6,00.0,39.0,31.7,07.9,0000.0,0009.10,0002.76,0001.63
2021-10-22 20:35:00,,0824.1,5.00,0.00,29.9,28.8,00.0,39.0,31.7,07.9,0000.0,0009.04,0002.71,0001.60
2021-10-22 20:36:00,,0824.1,5.00,0.00,30.0,29.0,00.0,39.0,31.8,07.9,0000.0,0009.68,0002.67,0001.59
2021-10-22 20:37:00,,0824.1,5.00,0.00,30.0,29.1,00.0,39.0,31.9,08.0,0000.0,0009.37,0002.59,0001.58
2021-10-22 20:38:00,,0824.1,5.00,0.00,30.1,29.2,00.0,39.0,31.9,07.8,0000.0,0009.32,0002.55,0001.58
2021-10-22 20:39:00,,0824.1,5.02,0.00,30.1,29.2,00.0,39.0,32.0,07.7,0000.0,0009.57,0002.51,0001.58
2021-10-22 20:40:00,,0824.1,5.00,0.00,30.1,29.3,00.0,39.1,32.0,07.8,0000.0,0009.48,0002.52,0001.57
2021-10-22 20:41:00,,0824.1,5.00,0.00,30.2,29.4,00.0,39.1,32.0,07.6,0000.0,0010.60,0002.52,0001.57
2021-10-22 20:42:00,,0824.1,4.99,0.00,30.2,29.5,00.0,39.1,32.1,07.6,0000.0,0010.42,0002.43,0001.56
2021-10-22 20:43:00,,0824.1,5.00,0.00,30.2,28.1,00.0,39.1,31.9,07.6,0000.0,0009.93,0002.36,0001.56
2021-10-22 20:44:00,,0824.1,5.00,0.00,30.1,26.1,00.0,39.1,31.5,07.7,0000.0,0010.39,0002.44,0001.58
2021-10-22 20:45:00,,0824.0,5.00,0.00,30.0,26.0,00.0,39.1,31.3,07.7,0000.0,0011.09,0002.44,0001.57
2021-10-22 20:46:00,,0824.0,5.01,0.00,29.9,26.4,00.0,39.0,31.4,07.7,0000.0,0012.77,0002.44,0001.56
2021-10-22 20:47:00,,0824.0,4.99,0.00,29.8,26.9,00.0,39.0,31.3,07.7,0000.0,0012.29,0002.47,0001.57
2021-10-22 20:48:00,,0824.0,5.00,0.00,29.8,27.4,00.0,38.9,31.4,07.7,0000.0,0012.56,0002.48,0001.57
2021-10-22 20:49:00,,0824.0,5.01,0.00,29.8,27.8,00.0,38.9,31.5,07.7,0000.0,0012.55,0002.51,0001.56
2021-10-22 20:50:00,,0824.0,5.01,0.00,29.8,28.1,00.0,38.9,31.5,07.8,0000.0,0012.51,0002.63,0001.57
2021-10-22 20:51:00,,0823.9,5.00,0.00,29.9,28.4,00.0,38.9,31.6,07.7,0000.0,0011.85,0002.61,0001.58
2021-10-22 20:52:00,,0824.0,4.99,0.00,29.9,28.6,00.0,38.9,31.7,07.7,0000.0,0010.58,0002.64,0001.57
2021-10-22 20:53:00,,0824.0,5.00,0.00,29.9,28.8,00.0,38.9,31.7,07.7,0000.0,0010.78,0002.75,0001.57
2021-10-22 20:54:00,,0824.0,5.01,0.00,30.0,29.0,00.0,38.9,31.8,07.8,0000.0,0010.79,0002.75,0001.58
2021-10-22 20:55:00,,0823.9,5.01,0.00,30.0,29.1,00.0,38.9,31.8,07.7,0000.0,0010.46,0002.73,0001.56
2021-10-22 20:56:00,,0823.9,5.00,0.00,30.0,29.1,00.0,39.0,31.9,07.7,0000.0,0010.15,0002.82,0001.57
2021-10-22 20:57:00,,0823.9,5.00,0.00,30.1,29.2,00.0,39.0,32.0,07.6,0000.0,0008.63,0002.87,0001.58
2021-10-22 20:58:00,,0823.9,4.99,0.00,30.1,29.2,00.0,39.0,32.0,07.6,0000.0,0008.53,0002.86,0001.58
2021-10-22 20:59:00,,0823.8,5.01,0.00,30.2,29.2,00.0,39.0,32.0,07.6,0000.0,0007.73,0002.85,0001.58
